Weather History for Dayton, OH

Change the Weather History Date:

Monday, May 6, 2013

  Actual Average Record
Temperature  
Mean Temperature 60 °F 58 °F  
Max Temperature 65 °F 69 °F 89 °F (1949)
Min Temperature 55 °F 48 °F 31 °F (1968)
Degree Days  
Heating Degree Days 5 7  
Month to date heating degree days 14 48  
Since 1 July heating degree days 5353 5499  
Cooling Degree Days 0 1  
Month to date cooling degree days 3 6  
Year to date cooling degree days 19 16  
Growing Degree Days 10 (Base 50)    
Moisture  
Dew Point 52 °F    
Average Humidity 77    
Maximum Humidity 87    
Minimum Humidity 67    
Precipitation  
Precipitation 0.09 in 0.15 in 0.91 in (1971)
Month to date precipitation 0.09 0.90  
Year to date precipitation 11.40 13.28  
Snow  
Snow 0.00 in 0.00 in 0.00 in ()
Month to date snowfall 0.0 0.0  
Since 1 July snowfall 36.3 23.3  
Snow Depth 0.00 in    
Sea Level Pressure  
Sea Level Pressure 29.97 in    
Wind  
Wind Speed 9 mph (East)    
Max Wind Speed 17 mph    
Max Gust Speed 24 mph    
Visibility 10 miles    
Events Rain    
T = Trace of Precipitation, MM = Missing Value Source: NWS Daily Summary

Daily Weather History Graph

Daily Weather History Graph

Search for Another Location

Airport:

Trip Planner

Search our weather history database for the weather conditions in past years. The results will help you decide how hot, cold, wet, or windy it might be!

Date:

Astronomy

May. 06, 2013 Rise Set
Actual Time 6:30 AM EDT 8:36 PM EDT
Civil Twilight 6:01 AM EDT 9:06 PM EDT
Nautical Twilight 5:24 AM EDT 9:43 PM EDT
Astronomical Twilight 4:45 AM EDT 10:22 PM EDT
Moon 4:32 AM EDT (5/6) 5:36 PM EDT (5/6)
Length of Visible Light 15h 05m
Length of Day
14h 05m
Waning Crescent, 11% of the Moon is Illuminated
May 6
Waning Crescent
May 9
New
May 18
First Quarter
May 25
Full
May 31
Last Quarter

Hourly Weather History & Observations

Time (EDT) Temp. Dew Point Humidity Pressure Visibility Wind Dir Wind Speed Gust Speed Precip Events Conditions
12:56 AM 57.9 °F 46.9 °F 67% 29.96 in 10.0 mi South 5.8 mph - N/A   Overcast
1:56 AM 57.0 °F 48.9 °F 74% 29.96 in 10.0 mi SSE 3.5 mph - 0.00 in   Mostly Cloudy
2:56 AM 55.0 °F 50.0 °F 83% 29.94 in 10.0 mi NE 5.8 mph - 0.00 in   Mostly Cloudy
3:56 AM 55.9 °F 50.0 °F 80% 29.94 in 10.0 mi Calm Calm - 0.00 in   Overcast
4:56 AM 55.9 °F 48.0 °F 75% 29.95 in 10.0 mi East 3.5 mph - 0.00 in   Overcast
5:56 AM 55.9 °F 51.1 °F 84% 29.94 in 10.0 mi ENE 4.6 mph - 0.01 in   Overcast
6:56 AM 57.0 °F 48.9 °F 74% 29.96 in 10.0 mi ESE 11.5 mph - 0.00 in Rain Light Rain
7:56 AM 55.0 °F 48.9 °F 80% 29.97 in 10.0 mi East 13.8 mph - 0.02 in Rain Light Rain
8:56 AM 57.0 °F 51.1 °F 81% 29.97 in 10.0 mi East 12.7 mph - 0.00 in   Overcast
9:56 AM 59.0 °F 51.1 °F 75% 29.98 in 10.0 mi East 16.1 mph - 0.00 in   Overcast
10:56 AM 60.1 °F 52.0 °F 75% 29.99 in 10.0 mi East 15.0 mph 19.6 mph 0.00 in Rain Light Rain
11:56 AM 62.1 °F 52.0 °F 70% 29.99 in 10.0 mi East 15.0 mph - 0.00 in Rain Light Rain
12:56 PM 61.0 °F 54.0 °F 78% 30.00 in 10.0 mi East 11.5 mph - 0.00 in Rain Light Rain
1:56 PM 59.0 °F 54.0 °F 83% 30.00 in 10.0 mi ENE 9.2 mph - 0.03 in Rain Light Rain
2:56 PM 60.1 °F 55.0 °F 83% 29.99 in 10.0 mi ENE 9.2 mph - 0.02 in Rain Light Rain
3:56 PM 62.1 °F 55.9 °F 80% 29.97 in 10.0 mi East 12.7 mph - 0.00 in Rain Light Rain
4:56 PM 62.1 °F 55.9 °F 80% 29.96 in 10.0 mi East 10.4 mph - 0.00 in Rain Light Rain
5:56 PM 64.0 °F 57.0 °F 78% 29.95 in 10.0 mi East 10.4 mph - 0.00 in   Mostly Cloudy
6:56 PM 64.0 °F 55.9 °F 75% 29.94 in 10.0 mi East 9.2 mph - N/A   Mostly Cloudy
7:56 PM 63.0 °F 55.0 °F 75% 29.96 in 10.0 mi East 6.9 mph - N/A   Mostly Cloudy
8:56 PM 62.1 °F 55.9 °F 80% 29.96 in 10.0 mi ESE 10.4 mph - N/A   Overcast
9:56 PM 60.1 °F 55.0 °F 83% 29.98 in 10.0 mi East 9.2 mph - N/A   Overcast
10:56 PM 59.0 °F 55.0 °F 87% 29.99 in 10.0 mi East 5.8 mph - N/A   Overcast
11:56 PM 57.2 °F 55.4 °F 94% 29.99 in 10.0 mi East 4.6 mph - N/A Rain Light Rain